SWA559 KPHX-KSAN

Flight info

Callsign SWA559
Flight time 0h 52m
Altitude 30000
Route FYRBD1 MOHAK J2 HOGGZ LUCKI1
Aircraft B38M/M-SDE1FGHILORVWXY/HB1

Departure

Time 2026-04-23 01:59
Airport Phoenix Sky Harbor International Airport (KPHX)

Arrival

Time 2026-04-23 02:51
Airport San Diego International Airport (KSAN)
Time Latitude Longitude Altitude Speed Heading
2026-04-23 01:24 33.43391 -111.99997 1126 ft 0 kts 87°
2026-04-23 01:49 33.43392 -112.00017 1124 ft 4 kts 109°
2026-04-23 01:50 33.43407 -112.00038 1119 ft 4 kts 160°
2026-04-23 01:50 33.43425 -112.00041 1123 ft 1 kts 180°
2026-04-23 01:50 33.43428 -112.00041 1123 ft 0 kts 180°
2026-04-23 01:56 33.43416 -112.00041 1119 ft 6 kts 180°
2026-04-23 01:56 33.43314 -112.00044 1123 ft 14 kts 183°
2026-04-23 01:56 33.43252 -112.00035 1121 ft 13 kts 152°
2026-04-23 01:57 33.43217 -111.99889 1121 ft 17 kts 92°
2026-04-23 01:57 33.43213 -111.99739 1122 ft 19 kts 91°
2026-04-23 01:57 33.43213 -111.99630 1126 ft 20 kts 90°
2026-04-23 01:57 33.43211 -111.99464 1120 ft 17 kts 90°
2026-04-23 01:58 33.43186 -111.99343 1126 ft 12 kts 136°
2026-04-23 01:58 33.43126 -111.99346 1118 ft 9 kts 222°
2026-04-23 01:58 33.43105 -111.99415 1126 ft 10 kts 270°
2026-04-23 01:58 33.43106 -111.99723 1126 ft 77 kts 270°
2026-04-23 01:59 33.43106 -112.00688 1129 ft 151 kts 271°
2026-04-23 01:59 33.43135 -112.02044 1697 ft 171 kts 272°
2026-04-23 01:59 33.43166 -112.03514 2428 ft 182 kts 269°
2026-04-23 01:59 33.43037 -112.05080 3151 ft 195 kts 258°
2026-04-23 02:00 33.42701 -112.06689 3951 ft 205 kts 257°
2026-04-23 02:00 33.42322 -112.08452 4529 ft 231 kts 255°
2026-04-23 02:00 33.41872 -112.10343 5270 ft 245 kts 254°
2026-04-23 02:00 33.41386 -112.12381 6078 ft 257 kts 253°
2026-04-23 02:01 33.40583 -112.14315 6966 ft 266 kts 232°
2026-04-23 02:01 33.39242 -112.15834 8000 ft 266 kts 225°
2026-04-23 02:01 33.37896 -112.17369 8917 ft 271 kts 226°
2026-04-23 02:01 33.36539 -112.18951 9910 ft 272 kts 226°
2026-04-23 02:02 33.35170 -112.20562 10625 ft 284 kts 226°
2026-04-23 02:02 33.33741 -112.22257 11076 ft 301 kts 226°
2026-04-23 02:02 33.32229 -112.24059 11677 ft 311 kts 227°
2026-04-23 02:02 33.30695 -112.25887 12576 ft 312 kts 227°
2026-04-23 02:03 33.29144 -112.27734 13348 ft 317 kts 227°
2026-04-23 02:03 33.27571 -112.29606 14079 ft 320 kts 227°
2026-04-23 02:03 33.25991 -112.31487 14787 ft 323 kts 227°
2026-04-23 02:03 33.24404 -112.33374 15517 ft 325 kts 228°
2026-04-23 02:04 33.22796 -112.35286 16203 ft 328 kts 228°
2026-04-23 02:04 33.21165 -112.37223 16884 ft 331 kts 228°
2026-04-23 02:04 33.19531 -112.39163 17541 ft 334 kts 229°
2026-04-23 02:04 33.17872 -112.41132 18193 ft 337 kts 229°
2026-04-23 02:05 33.16210 -112.43103 18755 ft 339 kts 229°
2026-04-23 02:05 33.14526 -112.45098 19349 ft 341 kts 229°
2026-04-23 02:05 33.12843 -112.47092 19880 ft 344 kts 229°
2026-04-23 02:05 33.11134 -112.49115 20425 ft 346 kts 229°
2026-04-23 02:06 33.09426 -112.51135 20990 ft 348 kts 229°
2026-04-23 02:06 33.07700 -112.53176 21537 ft 351 kts 229°
2026-04-23 02:06 33.05965 -112.55226 22088 ft 353 kts 229°
2026-04-23 02:06 33.04213 -112.57295 22644 ft 355 kts 229°
2026-04-23 02:07 33.02450 -112.59376 23190 ft 358 kts 229°
2026-04-23 02:07 33.00674 -112.61472 23699 ft 360 kts 229°
2026-04-23 02:07 32.98887 -112.63579 24161 ft 362 kts 229°
2026-04-23 02:07 32.97124 -112.65725 24616 ft 362 kts 235°
2026-04-23 02:08 32.95894 -112.68289 25056 ft 356 kts 253°
2026-04-23 02:08 32.95318 -112.71163 25452 ft 358 kts 259°
2026-04-23 02:08 32.94844 -112.74080 25867 ft 360 kts 261°
2026-04-23 02:08 32.94410 -112.76980 26325 ft 361 kts 261°
2026-04-23 02:09 32.93987 -112.79929 26770 ft 363 kts 261°
2026-04-23 02:09 32.93573 -112.82900 27200 ft 364 kts 262°
2026-04-23 02:09 32.93166 -112.85875 27697 ft 364 kts 262°
2026-04-23 02:09 32.92764 -112.88830 28274 ft 361 kts 262°
2026-04-23 02:10 32.92358 -112.91814 28893 ft 358 kts 262°
2026-04-23 02:10 32.91969 -112.94676 29496 ft 354 kts 262°
2026-04-23 02:10 32.91576 -112.97556 29882 ft 354 kts 262°
2026-04-23 02:10 32.91185 -113.00427 29927 ft 349 kts 262°
2026-04-23 02:11 32.90405 -113.06125 29923 ft 348 kts 262°
2026-04-23 02:11 32.89630 -113.11778 29903 ft 348 kts 262°
2026-04-23 02:12 32.88847 -113.17461 29903 ft 348 kts 262°
2026-04-23 02:12 32.88064 -113.23131 29897 ft 347 kts 262°
2026-04-23 02:13 32.87281 -113.28791 29909 ft 347 kts 262°
2026-04-23 02:13 32.86491 -113.34455 29898 ft 347 kts 262°
2026-04-23 02:14 32.85704 -113.40093 29897 ft 346 kts 262°
2026-04-23 02:14 32.84913 -113.45744 29904 ft 346 kts 262°
2026-04-23 02:15 32.83789 -113.53729 29901 ft 345 kts 262°
2026-04-23 02:16 32.83008 -113.59265 29909 ft 345 kts 262°
2026-04-23 02:16 32.82212 -113.64890 29916 ft 344 kts 262°
2026-04-23 02:17 32.81415 -113.70497 29908 ft 344 kts 262°
2026-04-23 02:17 32.80612 -113.76127 29915 ft 351 kts 262°
2026-04-23 02:18 32.79774 -113.81988 29907 ft 368 kts 262°
2026-04-23 02:18 32.78897 -113.88103 29917 ft 383 kts 262°
2026-04-23 02:19 32.77989 -113.94404 29919 ft 388 kts 262°
2026-04-23 02:19 32.77556 -114.00751 29921 ft 386 kts 269°
2026-04-23 02:20 32.77519 -114.07144 29914 ft 387 kts 272°
2026-04-23 02:20 32.77803 -114.13531 29918 ft 387 kts 272°
2026-04-23 02:21 32.78052 -114.19931 29921 ft 388 kts 272°
2026-04-23 02:21 32.78290 -114.26332 29924 ft 387 kts 272°
2026-04-23 02:22 32.78525 -114.32738 29936 ft 388 kts 272°
2026-04-23 02:22 32.78913 -114.39109 29904 ft 389 kts 282°
2026-04-23 02:23 32.80599 -114.45240 29936 ft 390 kts 284°
2026-04-23 02:23 32.82263 -114.51379 29922 ft 390 kts 285°
2026-04-23 02:24 32.83943 -114.57509 29925 ft 390 kts 285°
2026-04-23 02:24 32.85614 -114.63605 29937 ft 390 kts 285°
2026-04-23 02:25 32.87281 -114.69699 29926 ft 389 kts 285°
2026-04-23 02:25 32.87847 -114.72812 29921 ft 385 kts 271°
2026-04-23 02:25 32.87793 -114.75999 29924 ft 387 kts 269°
2026-04-23 02:26 32.87709 -114.82326 29940 ft 377 kts 269°
2026-04-23 02:26 32.87582 -114.88551 29924 ft 376 kts 269°
2026-04-23 02:27 32.87443 -114.94767 29926 ft 377 kts 269°
2026-04-23 02:27 32.87299 -115.01004 29929 ft 377 kts 268°
2026-04-23 02:28 32.87153 -115.07230 29936 ft 377 kts 268°
2026-04-23 02:28 32.87003 -115.13475 29931 ft 377 kts 268°
2026-04-23 02:29 32.86851 -115.19638 29306 ft 368 kts 268°
2026-04-23 02:29 32.86776 -115.22683 29203 ft 367 kts 268°
2026-04-23 02:29 32.86699 -115.25707 28929 ft 364 kts 268°
2026-04-23 02:29 32.86622 -115.28757 28530 ft 373 kts 268°
2026-04-23 02:30 32.86543 -115.31849 27569 ft 377 kts 268°
2026-04-23 02:30 32.86365 -115.34989 26521 ft 385 kts 261°
2026-04-23 02:30 32.85880 -115.38157 25522 ft 392 kts 261°
2026-04-23 02:30 32.85431 -115.41389 24541 ft 398 kts 262°
2026-04-23 02:31 32.84991 -115.44659 23722 ft 401 kts 262°
2026-04-23 02:31 32.84560 -115.47917 23140 ft 396 kts 261°
2026-04-23 02:31 32.84036 -115.51132 23015 ft 398 kts 259°
2026-04-23 02:31 32.83504 -115.54360 22892 ft 399 kts 260°
2026-04-23 02:32 32.82978 -115.57580 22914 ft 400 kts 260°
2026-04-23 02:32 32.82448 -115.60831 22915 ft 400 kts 260°
2026-04-23 02:32 32.81919 -115.64072 22935 ft 400 kts 260°
2026-04-23 02:32 32.81387 -115.67331 22935 ft 400 kts 260°
2026-04-23 02:33 32.80855 -115.70582 22934 ft 400 kts 260°
2026-04-23 02:33 32.80332 -115.73777 22934 ft 400 kts 260°
2026-04-23 02:33 32.79794 -115.77054 22935 ft 400 kts 260°
2026-04-23 02:33 32.79267 -115.80261 23004 ft 394 kts 260°
2026-04-23 02:34 32.78757 -115.83360 23103 ft 374 kts 260°
2026-04-23 02:34 32.78416 -115.86387 22564 ft 369 kts 266°
2026-04-23 02:34 32.78228 -115.89407 22028 ft 365 kts 265°
2026-04-23 02:34 32.78019 -115.92400 21524 ft 362 kts 265°
2026-04-23 02:35 32.77801 -115.95366 21015 ft 359 kts 265°
2026-04-23 02:35 32.77578 -115.98311 20504 ft 357 kts 265°
2026-04-23 02:35 32.77352 -116.01246 19986 ft 355 kts 265°
2026-04-23 02:35 32.77128 -116.04140 19481 ft 346 kts 265°
2026-04-23 02:36 32.76908 -116.06965 18999 ft 334 kts 265°
2026-04-23 02:36 32.76699 -116.09652 18536 ft 325 kts 265°
2026-04-23 02:36 32.76488 -116.12336 17970 ft 322 kts 265°
2026-04-23 02:36 32.76283 -116.14949 17395 ft 319 kts 265°
2026-04-23 02:37 32.76079 -116.17548 16904 ft 315 kts 265°
2026-04-23 02:37 32.75874 -116.20125 16437 ft 310 kts 266°
2026-04-23 02:37 32.75674 -116.22652 15981 ft 306 kts 266°
2026-04-23 02:37 32.75477 -116.25162 15531 ft 305 kts 266°
2026-04-23 02:38 32.75279 -116.27669 15090 ft 305 kts 266°
2026-04-23 02:38 32.75083 -116.30188 14576 ft 306 kts 267°
2026-04-23 02:38 32.74889 -116.32681 14120 ft 302 kts 267°
2026-04-23 02:38 32.74696 -116.35161 13681 ft 300 kts 267°
2026-04-23 02:39 32.74503 -116.37634 13213 ft 302 kts 267°
2026-04-23 02:39 32.74310 -116.40105 12751 ft 296 kts 267°
2026-04-23 02:39 32.74122 -116.42508 12321 ft 287 kts 267°
2026-04-23 02:39 32.73940 -116.44831 11912 ft 278 kts 266°
2026-04-23 02:40 32.73763 -116.47090 11518 ft 271 kts 266°
2026-04-23 02:40 32.73587 -116.49313 11115 ft 271 kts 266°
2026-04-23 02:40 32.73379 -116.51555 10751 ft 273 kts 265°
2026-04-23 02:40 32.73164 -116.53788 10442 ft 271 kts 265°
2026-04-23 02:41 32.72951 -116.55994 10102 ft 268 kts 265°
2026-04-23 02:41 32.72744 -116.58153 9762 ft 260 kts 265°
2026-04-23 02:41 32.72539 -116.60302 9420 ft 261 kts 265°
2026-04-23 02:41 32.72334 -116.62434 9077 ft 259 kts 265°
2026-04-23 02:42 32.72129 -116.64553 8740 ft 258 kts 265°
2026-04-23 02:42 32.71951 -116.66634 8393 ft 258 kts 267°
2026-04-23 02:42 32.71786 -116.68733 7858 ft 258 kts 266°
2026-04-23 02:42 32.71672 -116.70160 7530 ft 257 kts 266°
2026-04-23 02:43 32.71504 -116.72261 7126 ft 254 kts 266°
2026-04-23 02:43 32.71339 -116.74332 6822 ft 250 kts 266°
2026-04-23 02:43 32.71182 -116.76342 6489 ft 237 kts 266°
2026-04-23 02:43 32.70987 -116.78823 6140 ft 217 kts 266°
2026-04-23 02:44 32.70850 -116.80541 6052 ft 206 kts 266°
2026-04-23 02:44 32.70728 -116.81676 5998 ft 205 kts 259°
2026-04-23 02:44 32.70283 -116.83289 5787 ft 203 kts 252°
2026-04-23 02:44 32.69800 -116.84842 5509 ft 197 kts 252°
2026-04-23 02:45 32.69327 -116.86361 5263 ft 196 kts 252°
2026-04-23 02:45 32.68855 -116.87884 5055 ft 197 kts 253°
2026-04-23 02:45 32.68407 -116.89396 4784 ft 196 kts 253°
2026-04-23 02:45 32.67953 -116.90932 4482 ft 191 kts 253°
2026-04-23 02:46 32.67529 -116.92379 4204 ft 185 kts 255°
2026-04-23 02:46 32.67493 -116.93855 3918 ft 179 kts 282°
2026-04-23 02:46 32.67754 -116.95293 3689 ft 176 kts 282°
2026-04-23 02:46 32.67983 -116.96683 3603 ft 167 kts 284°
2026-04-23 02:47 32.68262 -116.98024 3460 ft 162 kts 288°
2026-04-23 02:47 32.68566 -116.99279 3263 ft 160 kts 288°
2026-04-23 02:47 32.68874 -117.00542 3129 ft 159 kts 288°
2026-04-23 02:47 32.69182 -117.01806 2970 ft 160 kts 288°
2026-04-23 02:48 32.69488 -117.03064 2798 ft 156 kts 288°
2026-04-23 02:48 32.69785 -117.04279 2685 ft 151 kts 289°
2026-04-23 02:48 32.70084 -117.05479 2426 ft 150 kts 290°
2026-04-23 02:48 32.70367 -117.06669 2123 ft 149 kts 288°
2026-04-23 02:49 32.70642 -117.07852 1836 ft 149 kts 288°
2026-04-23 02:49 32.70925 -117.09018 1641 ft 149 kts 289°
2026-04-23 02:49 32.71226 -117.10190 1478 ft 148 kts 289°
2026-04-23 02:49 32.71497 -117.11363 1295 ft 146 kts 288°
2026-04-23 02:50 32.71768 -117.12515 1070 ft 145 kts 289°
2026-04-23 02:50 32.72062 -117.13664 889 ft 145 kts 287°
2026-04-23 02:50 32.72345 -117.14805 644 ft 145 kts 289°
2026-04-23 02:50 32.72620 -117.15934 421 ft 140 kts 287°
2026-04-23 02:51 32.72877 -117.17016 241 ft 134 kts 288°
2026-04-23 02:51 32.73123 -117.18034 47 ft 119 kts 290°
2026-04-23 02:51 32.73322 -117.18821 24 ft 67 kts 286°
2026-04-23 02:51 32.73375 -117.19117 23 ft 18 kts 253°
2026-04-23 02:52 32.73328 -117.19185 24 ft 5 kts 229°
2026-04-23 02:52 32.73323 -117.19207 23 ft 0 kts 282°
2026-04-23 02:53 32.73323 -117.19210 24 ft 1 kts 277°
2026-04-23 02:53 32.73325 -117.19233 22 ft 4 kts 278°
2026-04-23 02:53 32.73333 -117.19277 25 ft 6 kts 282°
2026-04-23 02:53 32.73344 -117.19332 23 ft 7 kts 285°
2026-04-23 02:54 32.73350 -117.19390 24 ft 5 kts 256°
2026-04-23 02:54 32.73336 -117.19409 25 ft 3 kts 221°
2026-04-23 02:54 32.73313 -117.19429 25 ft 5 kts 215°
2026-04-23 02:54 32.73283 -117.19457 25 ft 1 kts 256°
2026-04-23 02:55 32.73284 -117.19475 25 ft 5 kts 271°
2026-04-23 02:55 32.73286 -117.19498 26 ft 4 kts 273°
2026-04-23 02:55 32.73287 -117.19528 25 ft 1 kts 275°
2026-04-23 02:55 32.73288 -117.19543 25 ft 0 kts 275°
2026-04-23 02:56 32.73289 -117.19549 26 ft 1 kts 275°
2026-04-23 02:56 32.73289 -117.19554 26 ft 0 kts 275°